This demonstration page uses our WeatherBlox Daily Observations layout. Learn more.

Left ArrowRight Arrow

44.89941, -97.11507

Hourly Observations for June 16, 2016

Temp ( °F °C ) Dew Point ( °F °C ) Humidity (%) Winds ( mph kmh ) Pressure ( in mb ) Visibility ( mi km ) Precip ( " mm )
12:53 am 00:53 Clear 63 17.2 59 15 87 87 SE 3 6 29.91 1013 10 16 0.00 0.00
1:53 am 01:53 Clear 62 16.7 58 14.4 86 86 SE 3 6 29.92 1013 10 16 0.00 0.00
2:53 am 02:53 Clear 62 16.7 58 14.4 86 86 ESE 5 7 29.91 1013 10 16 0.00 0.00
3:53 am 03:53 Clear 61 16.1 57 13.9 87 87 ESE 3 6 29.89 1012 10 16 0.00 0.00
4:53 am 04:53 Clear 59 15 56 13.3 90 90 SSE 6 9 29.91 1013 10 16 0.00 0.00
5:53 am 05:53 Sunny 58 14.4 56 13.3 93 93 SSE 6 9 29.93 1014 10 16 0.00 0.00
6:53 am 06:53 Sunny 61 16.1 56 13.3 84 84 SE 6 9 29.91 1013 10 16 0.00 0.00
7:53 am 07:53 Sunny 64 17.8 58 14.4 81 81 SE 10 17 29.91 1013 10 16 0.00 0.00
8:53 am 08:53 Sunny 69 20.6 59 15 70 70 SE 12 19 29.90 1013 10 16 0.00 0.00
9:53 am 09:53 Sunny 72 22.2 60 15.6 66 66 SE 8 13 29.88 1012 10 16 0.00 0.00
10:53 am 10:53 Sunny 77 25 61 16.1 58 58 E 12 19 29.84 1011 N/A 0.00 0.00
11:53 am 11:53 Sunny 79 26.1 60 15.6 52 52 ESE 13 20 29.85 1011 10 16 0.00 0.00
12:53 pm 12:53 Sunny 81 27.2 61 16.1 51 51 ESE 13 20 29.84 1010 10 16 0.00 0.00
1:53 pm 13:53 Sunny 83 28.3 61 16.1 48 48 SE 16 26 29.81 1010 10 16 0.00 0.00
2:53 pm 14:53 Sunny 84 28.9 62 16.7 48 48 SE 15 24 29.80 1009 10 16 0.00 0.00
3:53 pm 15:53 Sunny 85 29.4 63 17.2 48 48 SE 20 31 29.80 1009 10 16 0.00 0.00
4:53 pm 16:53 Sunny 86 30 64 17.8 48 48 SE 17 28 29.80 1009 10 16 0.00 0.00
5:53 pm 17:53 Sunny 86 30 65 18.3 49 49 SE 14 22 29.80 1009 10 16 0.00 0.00
6:53 pm 18:53 Sunny 85 29.4 64 17.8 50 50 SSE 20 31 29.81 1009 10 16 0.00 0.00
7:53 pm 19:53 Sunny 84 28.9 65 18.3 53 53 SE 15 24 29.81 1010 10 16 0.00 0.00
8:53 pm 20:53 Sunny 81 27.2 65 18.3 58 58 SSE 12 19 29.83 1010 10 16 0.00 0.00
9:53 pm 21:53 Clear 79 26.1 64 17.8 60 60 SE 10 17 29.84 1010 10 16 0.00 0.00
10:53 pm 22:53 Clear 76 24.4 63 17.2 64 64 SE 8 13 29.84 1011 10 16 0.00 0.00
11:53 pm 23:53 Clear 75 23.9 64 17.8 69 69 SE 10 17 29.84 1011 10 16 0.00 0.00

Powered by AerisWeather